GFSFLT1_sfc_temp_012.txt.gz
Temp
75 74 74 73 73 72 72 72 74 74 74 75 73 73 72 70 62 63 67 65 75 74 74 73 73 73 73 72 72 72 72 72 72
74 74 74 73 73 72 72 72 72 73 72 73 73 72 71 63 60 62 63 65 75 74 74 73 73 73 72 72 72 71 71 71 71
74 73 73 73 72 72 72 72 72 72 72 72 72 71 70 65 60 62 62 68 75 75 74 73 73 72 72 72 72 71 71 70 70
74 73 73 73 73 72 72 72 72 72 72 72 72 70 69 61 60 65 61 70 75 75 74 73 73 72 72 72 71 71 71 70 70
73 72 72 73 72 72 72 72 72 72 71 71 71 70 68 60 59 61 61 71 75 75 74 73 73 73 72 71 71 71 71 71 71
66 67 69 71 71 71 71 71 72 71 70 70 70 68 59 57 58 59 66 72 75 75 74 73 73 73 72 72 71 71 71 71 71
66 65 68 70 71 70 71 71 71 69 60 59 66 60 58 56 57 58 68 72 75 75 74 73 73 73 72 72 72 72 72 72 72
60 60 62 63 65 61 65 62 61 58 56 56 55 56 55 54 57 62 68 71 75 76 75 74 73 73 73 72 72 72 72 72 72
58 59 61 60 60 59 57 56 57 56 56 54 55 55 55 57 58 57 65 70 74 76 76 75 74 73 73 73 73 72 72 72 72
58 59 59 59 58 57 56 56 57 55 55 56 56 58 57 57 58 57 62 67 71 75 76 76 75 74 74 73 73 73 73 72 72
60 61 61 60 58 58 59 58 58 57 57 58 58 58 59 58 59 59 59 65 68 72 75 76 76 76 75 75 74 73 73 73 73
65 62 61 61 58 58 58 57 56 55 57 57 58 60 59 60 60 60 60 60 65 68 73 75 75 75 76 76 75 74 74 73 73
62 61 61 60 58 58 57 58 57 56 56 59 58 61 60 61 61 62 62 61 63 65 68 71 73 74 75 76 76 75 74 73 73
62 61 62 60 59 59 59 60 58 61 58 59 60 59 59 60 63 61 61 62 63 62 64 66 67 70 72 75 76 76 75 74 73
63 65 63 60 60 60 56 59 58 60 61 62 63 62 61 62 62 63 64 63 62 62 63 63 63 65 69 72 74 75 74 74 73
64 65 65 60 62 64 63 61 59 60 54 53 59 59 59 60 62 63 62 63 63 63 62 62 62 64 66 67 70 72 73 73 73
65 65 66 64 63 63 63 60 61 60 56 56 57 55 61 62 61 63 62 62 64 63 62 63 63 62 61 62 66 68 71 72 73
65 67 66 66 63 64 63 61 59 59 63 59 59 53 52 51 53 55 60 61 60 60 62 62 62 63 62 62 62 63 66 70 72
64 66 66 65 65 62 64 64 61 61 59 63 61 62 61 55 55 57 53 56 58 60 61 61 62 63 61 62 61 62 63 66 70
62 62 62 62 64 64 64 64 63 63 61 61 61 60 59 60 56 54 59 60 58 60 60 61 62 62 62 61 60 61 63 67 69

GFSFLT1_sfc_temp_018.txt.gz
Temp
75 74 74 73 73 72 72 73 73 74 74 74 74 73 73 69 60 60 63 64 70 75 74 73 73 73 73 72 72 72 72 72 72
75 74 73 73 72 72 72 73 73 73 73 73 74 73 72 61 58 59 60 62 72 75 74 73 73 73 73 72 72 72 72 72 71
76 74 73 73 73 73 73 72 72 72 72 73 72 72 70 64 58 59 59 64 72 75 75 74 73 73 73 73 72 72 72 71 71
75 74 73 73 73 73 72 72 72 72 72 72 72 71 70 61 58 61 59 66 72 75 76 75 74 74 73 73 73 72 72 72 71
73 72 72 73 73 73 72 72 72 72 72 72 71 70 69 61 58 58 58 68 71 74 75 75 74 74 74 73 73 73 72 72 72
64 66 69 70 71 72 73 72 72 71 70 70 70 69 60 58 57 56 63 69 72 73 74 75 75 74 74 73 73 73 73 72 72
64 63 67 69 70 70 71 72 71 68 59 57 63 58 58 57 56 56 65 69 72 73 74 74 75 74 74 74 73 73 73 73 72
58 58 58 58 61 60 62 61 60 59 57 55 54 54 54 54 55 58 65 68 71 73 74 74 75 75 74 74 74 73 73 73 73
57 56 57 56 57 58 58 58 58 57 56 54 53 53 52 53 55 55 63 66 70 72 73 74 74 75 75 74 74 74 73 73 73
57 56 56 56 56 57 57 57 57 56 56 55 54 55 54 53 56 56 60 64 67 70 72 74 74 75 76 75 74 73 73 73 73
57 57 57 56 57 58 57 57 57 57 56 56 55 56 56 56 56 57 57 63 66 68 71 73 74 75 76 76 75 74 73 73 73
59 57 56 58 57 57 57 56 56 56 56 56 57 57 56 57 57 57 59 59 63 66 69 72 73 74 75 76 76 75 74 73 72
58 58 59 60 56 56 56 57 56 55 56 57 58 58 59 59 58 59 60 60 60 63 66 68 71 72 74 75 76 75 75 74 74
59 59 61 58 56 56 57 58 56 60 60 56 58 58 57 59 62 60 60 60 62 62 63 64 66 68 71 73 75 75 75 74 74
58 59 59 59 59 59 58 58 62 59 62 62 62 63 62 60 59 60 62 62 61 61 62 62 63 64 67 70 72 74 74 73 73
59 59 59 59 58 60 63 63 59 60 61 56 58 60 62 61 61 61 61 61 62 61 61 61 62 62 65 66 68 70 72 73 72
61 58 58 58 57 57 57 56 58 60 58 57 57 54 58 58 60 60 60 60 62 62 61 61 60 60 61 61 65 67 69 71 72
57 56 56 55 55 56 57 56 58 57 61 59 56 53 54 58 59 55 58 59 59 60 61 61 61 61 60 61 61 63 65 68 71
56 55 54 53 53 53 54 57 55 56 56 60 61 59 57 54 53 62 62 56 57 59 60 60 61 61 60 61 60 61 62 66 69
55 54 52 52 53 51 51 52 52 52 52 53 54 55 56 57 54 52 57 61 62 62 61 61 61 61 61 61 60 61 63 66 68

GFSFLT1_sfc_temp_021.txt.gz
Temp
76 75 74 74 73 73 73 73 73 74 74 74 74 73 73 71 73 72 73 73 73 74 76 74 74 74 74 73 73 73 72 72 73
76 74 74 73 73 73 73 73 73 73 73 73 74 74 72 74 73 72 72 73 72 74 76 75 74 74 74 73 73 72 72 72 72
76 75 73 73 73 73 73 73 73 73 73 73 73 73 71 72 72 71 71 70 71 74 76 75 74 74 74 74 73 73 72 72 72
74 75 74 73 73 73 73 72 72 73 73 72 72 71 70 73 72 71 72 68 71 73 74 76 75 75 74 74 73 73 73 73 72
72 72 71 73 73 73 73 73 72 72 72 72 71 70 69 74 72 71 71 68 71 73 74 75 76 75 75 74 73 73 73 73 73
72 69 69 70 71 71 72 72 73 71 70 70 69 68 74 73 72 72 68 68 71 73 74 74 75 76 75 74 74 73 73 73 73
70 67 66 68 69 69 70 71 71 70 73 72 67 71 71 71 71 71 67 68 71 73 73 74 74 75 75 75 74 74 74 73 73
69 69 69 69 66 70 70 71 71 71 72 71 71 70 70 70 70 69 66 68 71 72 73 73 74 74 75 75 75 74 74 74 73
68 69 69 68 70 69 69 70 70 70 70 70 70 70 70 69 69 69 64 67 70 71 72 73 73 74 75 75 75 74 74 74 73
69 69 69 69 69 69 69 69 69 69 70 70 69 68 69 69 69 69 63 64 67 70 72 73 74 74 75 75 75 75 74 73 73
68 68 68 68 69 70 69 69 69 69 69 69 70 68 69 69 69 69 69 64 65 68 71 73 74 74 75 75 75 75 74 74 73
68 68 68 69 69 68 68 68 67 67 68 67 68 69 69 69 69 69 69 69 64 65 69 71 72 73 74 75 75 75 74 74 73
68 68 69 70 69 68 67 66 63 63 63 64 65 65 65 67 70 70 70 69 69 67 65 68 70 72 73 74 75 75 74 74 74
68 68 69 69 68 67 66 64 64 65 66 66 66 66 65 67 69 69 69 69 68 70 68 64 65 67 70 73 74 75 74 73 73
67 67 67 67 66 67 67 65 66 66 66 65 65 67 68 69 68 68 69 69 68 69 68 69 69 64 66 69 71 73 73 73 73
66 66 66 66 65 65 65 65 64 65 66 60 60 64 68 68 69 70 69 68 68 69 69 69 69 69 65 66 67 69 71 72 72
64 63 62 63 63 63 62 62 60 63 65 59 57 55 62 69 66 68 68 69 70 69 69 70 69 69 69 67 65 66 68 70 71
61 61 61 60 60 59 59 59 58 56 60 62 57 54 54 58 65 67 68 69 68 69 69 69 69 69 69 67 65 63 64 67 70
60 59 59 59 59 58 58 59 57 56 54 58 63 58 57 51 51 64 65 67 67 67 68 68 68 68 69 66 63 62 63 65 68
58 58 57 57 57 57 56 56 55 56 54 54 54 54 55 56 52 48 55 60 64 65 66 68 69 68 68 68 66 63 63 65 66

GFSFLT1_sfc_temp_027.txt.gz
Temp
76 75 74 73 73 73 73 73 73 73 73 74 74 74 73 72 77 78 78 77 77 76 75 75 76 75 75 75 75 74 74 74 73
77 74 74 73 73 73 73 73 73 73 73 73 74 74 72 74 76 77 78 77 77 76 75 75 76 75 75 75 74 74 74 73 73
76 76 74 73 73 73 73 73 73 73 73 73 73 73 72 74 75 76 77 76 76 75 75 75 75 76 75 75 74 74 74 74 73
75 74 73 74 74 73 73 73 73 73 73 73 72 71 70 72 74 76 78 75 76 75 74 75 75 75 76 75 75 74 74 74 74
73 73 73 73 72 73 73 73 73 73 73 73 72 70 69 72 74 76 77 76 76 75 74 74 75 76 75 75 75 75 74 74 74
79 75 71 71 71 72 72 72 72 71 70 70 71 69 74 76 78 79 76 76 76 75 74 74 74 74 75 75 75 75 75 75 74
80 72 69 70 70 70 71 71 71 70 74 78 70 73 77 79 79 79 75 76 76 75 73 73 73 74 74 75 75 75 75 75 75
81 80 79 76 70 74 75 75 74 77 79 79 80 80 81 80 79 78 73 75 76 75 74 73 73 73 74 74 74 75 75 75 74
80 80 79 78 79 78 77 78 79 79 79 79 80 80 80 80 80 79 71 73 75 74 74 74 74 74 74 74 74 74 74 74 74
81 80 80 79 80 79 78 78 78 79 80 80 80 79 79 79 79 79 71 70 72 74 74 73 74 74 74 74 74 74 74 74 74
79 79 78 79 79 79 79 78 77 77 79 78 79 79 80 80 80 80 79 70 70 72 74 74 73 74 75 75 74 74 74 74 73
78 78 77 78 80 79 78 78 77 76 76 75 77 78 79 78 78 78 78 77 69 70 73 74 73 73 73 75 75 74 74 73 73
78 77 77 78 77 77 74 73 73 74 75 75 76 77 77 77 78 78 78 77 78 75 69 71 73 73 73 73 74 74 73 73 73
77 76 75 76 75 75 74 73 73 71 72 72 74 74 74 75 77 76 76 77 76 76 73 68 68 69 71 72 73 73 72 72 71
75 74 73 74 73 72 70 69 70 69 70 71 70 71 72 73 73 74 76 75 76 76 75 75 74 67 69 71 73 73 72 71 71
72 71 71 71 70 69 68 67 65 65 68 64 64 66 67 71 71 70 70 70 72 74 74 74 74 71 69 70 71 71 71 71 71
70 68 68 67 67 66 65 64 61 63 64 60 58 56 61 67 65 66 68 68 69 70 70 71 70 69 69 69 68 69 71 72 72
67 66 65 65 65 63 62 62 59 57 60 62 57 52 51 54 61 63 65 65 65 66 66 67 68 69 69 67 67 66 66 68 69
65 64 63 63 63 61 60 62 60 59 55 58 61 58 57 50 49 59 60 63 63 62 64 64 65 66 67 64 63 62 63 65 66
63 63 62 61 60 59 58 58 58 58 55 54 54 55 56 56 50 46 52 57 59 60 61 63 61 62 62 63 63 62 63 64 64